Regional Weather Roundup
Issued by NWS Burlington, VT

Home | Current Version | Previous Version | Text Only | Print | Product List | Glossary On
Versions: 1 2 3 4 5 6 7 8 9 10 11 12 13 14 15 16 17 18 19 20 21 22 23 24 25 26 27 28 29 30 31 32 33 34 35 36 37 38 39 40 41 42 43 44 45 46 47 48 49 50
000
ASUS41 KBTV 230610
RWRBTV
VERMONT REGIONAL WEATHER ROUNDUP
NATIONAL WEATHER SERVICE BURLINGTON VT
100 AM EST TUE JAN 23 2018

NOTE: "FAIR" INDICATES FEW OR NO CLOUDS BELOW 12,000 FEET WITH NO
SIGNIFICANT WEATHER AND/OR OBSTRUCTIONS TO VISIBILITY.

* THESE REPORTS ARE NOT UNDER NWS QUALITY CONTROL AND/OR DO NOT
  REPORT WEATHER SUCH AS PRECIPITATION AND FOG.

VTZ001>019-230700-
_____VERMONT_____


CITY           SKY/WX    TMP DP  RH WIND       PRES   REMARKS
BURLINGTON     CLOUDY    35  30  82 SE9       29.94F WCI  28
6HR MIN TEMP:  26; 6HR MAX TEMP:  35; 6HR PCP:  0.03;

MONTPELIER     CLOUDY    28  27  96 S10       30.06F WCI  19
6HR MIN TEMP:  28; 6HR MAX TEMP:  29; 6HR PCP:  0.04;

MORRISVILLE    CLOUDY    30  27  88 S8        30.02F WCI  22
6HR MIN TEMP:  30; 6HR MAX TEMP:  31; 6HR PCP:  0.04;

ST. JOHNSBURY*   N/A     31  29  92 MISG      30.04F
6HR MIN TEMP:  29; 6HR MAX TEMP:  31; 6HR PCP:  0.14;

LYNDONVILLE*   CLOUDY    29  28  95 E6        30.04F WCI  23
6HR MIN TEMP:  28; 6HR MAX TEMP:  29;

MIDDLEBURY*    CLOUDY    36  30  78 SE8G16    29.95F WCI  30
6HR MIN TEMP:  24; 6HR MAX TEMP:  36;

RUTLAND*       CLOUDY    33  29  85 SE18G25   30.00F WCI  22
6HR MIN TEMP:  31; 6HR MAX TEMP:  33; 6HR PCP: TRACE;

SPRINGFIELD    CLOUDY    29  29 100 SE5       30.11F FOG     WCI  24
6HR MIN TEMP:  29; 6HR MAX TEMP:  30; 6HR PCP:  0.10;

HIGHGATE*      CLOUDY    32  31  99 CALM      29.92F
6HR MIN TEMP:  24; 6HR MAX TEMP:  32;

NEWPORT*       MIX PCPN  31  29  94 S15       29.99F WCI  20
6HR MIN TEMP:  24; 6HR MAX TEMP:  31;

BENNINGTON     CLOUDY    41  33  73 VRB3      29.96F
6HR MIN TEMP:  37; 6HR MAX TEMP:  41; 6HR PCP:  0.02;

SUTTON*          N/A     28 N/A N/A MISG        N/A

_____LAKE CHAMPLAIN_____


CITY           SKY/WX    TMP DP  RH WIND       PRES   REMARKS
BURTON ISLAND*   N/A     36  32  87 S20G26      N/A  WCI  25
COLCHESTER RF*   N/A     36  32  87 S33         N/A  WCI  22
DIAMOND ISL*     N/A     36  34  93 S15         N/A  WCI  26

$$

NYZ007-026>031-035-052-083-087-230700-
_____NORTHERN NEW YORK_____


CITY           SKY/WX    TMP DP  RH WIND       PRES   REMARKS
PLATTSBURGH    CLOUDY    37  31  78 S16G25    29.91F WCI  28
6HR MIN TEMP:  24; 6HR MAX TEMP:  37; 6HR PCP:  0.03;

SARANAC LAKE   FAIR      33  32  96 CALM      29.79F
6HR MIN TEMP:  28; 6HR MAX TEMP:  34; 6HR PCP: TRACE;

MASSENA        CLOUDY    25  25 100 NE16      29.84F WCI  12
6HR MIN TEMP:  21; 6HR MAX TEMP:  26; 6HR PCP:  0.03;

OGDENSBURG*    MIX PCPN  26  25  96 E8        29.78F WCI  18
6HR MIN TEMP:  24; 6HR MAX TEMP:  26;

POTSDAM*       PTCLDY    25  23  93 NE10      29.78F WCI  15
WATERTOWN      MOCLDY    32  32 100 NE5       29.72F FOG     WCI  27
6HR MIN TEMP:  30; 6HR MAX TEMP:  32; 6HR PCP: TRACE;

FT DRUM        FAIR      40  36  87 SE9         N/A
6HR MIN TEMP:  36; 6HR MAX TEMP:  40; 6HR PCP:  0.14;

ALBANY         CLOUDY    38  34  85 S9        29.97F WCI  31
6HR MIN TEMP:  33; 6HR MAX TEMP:  39; 6HR PCP: TRACE;

GLENS FALLS    CLOUDY    30  30 100 CALM      29.99F FOG
6HR MIN TEMP:  28; 6HR MAX TEMP:  31; 6HR PCP:  0.01;


$$
NHZ002-005-011-230700-
_____NEW HAMPSHIRE_____


CITY           SKY/WX    TMP DP  RH WIND       PRES   REMARKS
LEBANON        CLOUDY    29  27  92 NE6       30.09F FOG     WCI  23
6HR MIN TEMP:  29; 6HR MAX TEMP:  31; 6HR PCP:  0.08;

KEENE          CLOUDY    30  28  92 CALM      30.11F
6HR MIN TEMP:  30; 6HR MAX TEMP:  31; 6HR PCP:  0.05;

MT WASHINGTON  SNOWSHWR  19  19 100 S44         N/A  VSB 0   WCI  -2
6HR MIN TEMP:  15; 6HR MAX TEMP:  20; 6HR PCP:  0.10;

PLYMOUTH       CLOUDY    27  26  96 CALM      30.16F FOG
6HR MIN TEMP:  26; 6HR MAX TEMP:  27; 6HR PCP:  0.07;

WHITEFIELD     CLOUDY    37  28  70 S13G28    30.02F WCI  29
6HR MIN TEMP:  30; 6HR MAX TEMP:  38; 6HR PCP:  0.07;


$$

_____REGIONAL QUEBEC LOCATIONS_____


CITY           SKY/WX    TMP DP  RH WIND       PRES   REMARKS
MONTREAL       FRZ RAIN  27  23  86 NE20      29.92F WCI  13
QUEBEC CITY    LGT SNOW  14  10  85 E24G35    30.18F VSB 5/8 WCI  -5
SHERBROOKE     FRZ RAIN  28  25  86 E12G17    29.98F WCI  18

_____REGIONAL ONTARIO LOCATIONS_____


CITY           SKY/WX    TMP DP  RH WIND       PRES   REMARKS
OTTAWA         FLURRIES  25  23  93 E13G22    29.80F WCI  13

______KEY______
VSB  - VISIBILITY IN MILES
WCI  - WIND CHILL INDEX
HX   - HEAT INDEX
$$
NNNN




USA.gov is the U.S. government's official web portal to all federal, state and local government web resources and services.